EW5506 Weather Reports


Display with metric or nautical units.
time (UTC)temp
F
wind
direction
speed
MPH
gust
MPH
rain 1hr
in
rain 24hr
in
rain mn
in
humidity
%
barometer
mb
20260502213007 65 232 5.0 9.0 0.00 0.00 0.00 49 1016.3
20260502211507 66 240 5.0 10.0 0.00 0.00 0.00 47 1016.3
20260502210008 68 286 9.0 12.0 0.00 0.00 0.00 44 1016.4
20260502204510 68 270 6.0 14.0 0.00 0.00 0.00 44 1016.3
20260502203043 67 238 7.0 13.0 0.00 0.00 0.00 50 1016.3
20260502201520 67 216 8.0 13.0 0.00 0.00 0.00 55 1016.2
20260502200048 66 229 5.0 9.0 0.00 0.00 0.00 58 1016.1
20260502194514 67 243 4.0 8.0 0.00 0.00 0.00 56 1016.0
20260502193023 68 239 5.0 9.0 0.00 0.00 0.00 53 1015.9
20260502191516 69 233 5.0 9.0 0.00 0.00 0.00 52 1015.9
20260502190104 70 213 5.0 8.0 0.00 0.00 0.00 51 1015.7
20260502184534 70 255 4.0 8.0 0.00 0.00 0.00 51 1015.6
20260502183112 71 230 3.0 7.0 0.00 0.00 0.00 50 1015.6
20260502181541 72 248 4.0 9.0 0.00 0.00 0.00 48 1015.5
20260502180110 73 261 3.0 8.0 0.00 0.00 0.00 47 1015.4
20260502170117 76 277 4.0 11.0 0.00 0.00 0.00 42 1015.5
20260502163118 76 292 2.0 7.0 0.00 0.00 0.00 47 1015.7
20260502161624 77 302 3.0 5.0 0.00 0.00 0.00 43 1015.8
20260502161505 77 303 3.0 5.0 0.00 0.00 0.00 43 1015.8
20260502160121 78 302 3.0 5.0 0.00 0.00 0.00 41 1016.0
20260502151548 78 310 2.0 9.0 0.00 0.00 0.00 40 1016.4
20260502150114 79 355 2.0 8.0 0.00 0.00 0.00 40 1016.6
20260502140108 79 346 3.0 6.0 0.00 0.00 0.00 41 1017.5
20260502130107 77 255 0.0 7.0 0.00 0.00 0.00 42 1018.4
20260502123054 77 225 2.0 6.0 0.00 0.00 0.00 43 1018.8
20260502121522 77 283 3.0 8.0 0.00 0.00 0.00 43 1019.0
20260502114519 76 290 4.0 9.0 0.00 0.00 0.00 44 1019.5
20260502113040 75 277 2.0 6.0 0.00 0.00 0.00 44 1019.7
20260502111559 74 196 4.0 6.0 0.00 0.00 0.00 47 1019.9
20260502111505 74 185 4.0 6.0 0.00 0.00 0.00 47 1019.9
20260502110012 74 200 1.0 7.0 0.00 0.00 0.00 48 1020.1
20260502104506 74 235 4.0 8.0 0.00 0.00 0.00 46 1020.3
20260502103119 73 257 4.0 8.0 0.00 0.00 0.00 48 1020.6
20260502101545 72 235 4.0 8.0 0.00 0.00 0.00 49 1020.8
20260502091518 70 246 4.0 10.0 0.00 0.00 0.00 51 1021.4
20260502080109 65 190 3.0 8.0 0.00 0.00 0.00 53 1022.1
20260502071521 60 195 6.0 8.0 0.00 0.00 0.00 56 1022.5
20260502070039 59 164 4.0 7.0 0.00 0.00 0.00 57 1022.5
20260502064503 58 192 4.0 9.0 0.00 0.00 0.00 57 1022.6
20260502063015 58 187 5.0 8.0 0.00 0.00 0.00 58 1022.5
20260502061544 57 165 4.0 9.0 0.00 0.00 0.00 59 1022.4
20260502054521 54 205 4.0 7.0 0.00 0.00 0.00 67 1022.5
20260502053110 52 192 2.0 7.0 0.00 0.00 0.00 71 1022.5
20260502051512 48 186 5.0 8.0 0.00 0.00 0.00 81 1022.5
20260502050015 47 205 4.0 9.0 0.00 0.00 0.00 82 1022.3
20260502044507 46 255 2.0 4.0 0.00 0.00 0.00 84 1022.3
20260502043034 46 256 2.0 4.0 0.00 0.00 0.00 83 1022.3
20260502041519 47 257 1.0 2.0 0.00 0.00 0.00 83 1022.2
20260502040056 47 257 1.0 3.0 0.00 0.00 0.00 83 1022.2
20260502034533 47 257 1.0 3.0 0.00 0.00 0.00 82 1022.2
20260502033105 47 257 2.0 3.0 0.00 0.00 0.00 81 1022.3
20260502031525 48 257 0.0 2.0 0.00 0.00 0.00 81 1022.3
20260502024548 48 257 2.0 4.0 0.00 0.00 0.00 80 1022.3
20260502023033 48 257 0.0 2.0 0.00 0.00 0.00 80 1022.3
20260502021519 48 257 2.0 11.0 0.00 0.00 0.00 81 1022.3
20260502020059 47 232 2.0 3.0 0.00 0.00 0.00 82 1022.2
20260502014533 47 235 2.0 5.0 0.00 0.00 0.00 81 1022.2
20260502013053 48 238 2.0 3.0 0.00 0.00 0.00 80 1022.3
20260502011521 48 238 1.0 3.0 0.00 0.00 0.00 80 1022.4
20260502004532 48 237 2.0 5.0 0.00 0.00 0.00 80 1022.5
20260502003106 49 227 1.0 3.0 0.00 0.00 0.00 79 1022.6
20260502001533 49 227 1.0 3.0 0.00 0.00 0.00 78 1022.7
20260502000050 49 227 2.0 5.0 0.00 0.00 0.00 78 1022.8
20260501234516 49 229 2.0 5.0 0.00 0.00 0.00 78 1022.8
20260501233102 49 227 1.0 3.0 0.00 0.00 0.00 77 1022.8
20260501231527 50 227 2.0 5.0 0.00 0.00 0.00 76 1022.7
20260501230054 51 223 1.0 3.0 0.00 0.00 0.00 75 1022.7
20260501224536 51 223 1.0 4.0 0.00 0.00 0.00 74 1022.6
20260501223143 51 221 2.0 4.0 0.00 0.00 0.00 73 1022.7
20260501221504 52 222 0.0 2.0 0.00 0.00 0.00 72 1022.7
20260501220121 52 222 1.0 4.0 0.00 0.00 0.00 70 1022.6
20260501214507 53 235 3.0 5.0 0.00 0.00 0.00 68 1022.6